Location: Ferma
(41.9500°N, 44.5167°E)
Time: 19:14:14
(UTC+00:00)

FENGYUN 1C DEB - Pass Details

Date: 20 August 2022
Orbit: 606 x 930 km, 99.7° (Epoch: 01 October)

Event Time Altitude Azimuth Distance (km) Brightness Sun altitude
Exits shadow 17:50:39 36° 148° (SSE) 1,264 ? -19.8°
Maximum altitude 17:52:51 74° 72° (ENE) 873 ? -20.1°
Drops below altitude 10° 17:58:31 10° 349° (NNW) 2,551 ? -20.9°
Sets 18:01:01 0° 347° (NNW) 3,528 ? -21.2°
